This is the latest recevied weather packets stored in our database for station/object KB3GVC-13. If no packets are shown the sender has not sent any weather packets the latest 10 day(s).
| Time | Temp. | Humidity | Pressure | Rain* | Wind** | Luminosity | Snow |
|---|---|---|---|---|---|---|---|
| 1778138698 | 11.67° C | 96% | 1011.5 hPa | 0 mm | - | - | - |
| 1778138395 | 11.67° C | 96% | 1011.7 hPa | 0 mm | - | - | - |
| 1778138092 | 12.22° C | 96% | 1011.9 hPa | 0 mm | - | - | - |
| 1778137788 | 12.22° C | 96% | 1011.7 hPa | 0 mm | - | - | - |
| 1778137486 | 12.22° C | 96% | 1011.5 hPa | 0 mm | - | - | - |
| 1778137182 | 12.22° C | 96% | 1011.5 hPa | 0 mm | - | - | - |
| 1778136879 | 12.22° C | 96% | 1011.9 hPa | 0 mm | - | - | - |
| 1778136576 | 12.22° C | 96% | 1011.7 hPa | 0 mm | - | - | - |
| 1778136275 | 12.78° C | 96% | 1012 hPa | 0 mm | - | - | - |
| 1778135972 | 12.78° C | 96% | 1011.6 hPa | 0 mm | - | - | - |
| 1778135669 | 12.78° C | 97% | 1011.5 hPa | 0 mm | - | - | - |
| 1778135366 | 12.78° C | 97% | 1011.8 hPa | 0 mm | - | - | - |
| 1778135063 | 12.78° C | 97% | 1011.6 hPa | 0 mm | - | - | - |
| 1778134760 | 13.33° C | 97% | 1011.8 hPa | 0 mm | - | - | - |
| 1778134459 | 13.33° C | 97% | 1011.6 hPa | 1.78 mm | - | - | - |
| 1778134157 | 13.33° C | 97% | 1011.2 hPa | 1.78 mm | - | - | - |
| 1778133853 | 13.33° C | 97% | 1011.4 hPa | 0 mm | - | - | - |
| 1778133550 | 13.33° C | 96% | 1011.6 hPa | 1.27 mm | - | - | - |
| 1778133245 | 13.33° C | 96% | 1011.7 hPa | 6.1 mm | - | - | - |
| 1778132942 | 13.89° C | 95% | 1011.3 hPa | 7.11 mm | - | - | - |
| 1778132638 | 13.89° C | 95% | 1011.7 hPa | 6.1 mm | - | - | - |
| 1778132335 | 13.89° C | 95% | 1011.6 hPa | 6.6 mm | - | - | - |
| 1778132033 | 14.44° C | 93% | 1011.8 hPa | 4.83 mm | - | - | - |
| 1778131732 | 14.44° C | 91% | 1011.1 hPa | 6.1 mm | - | - | - |
| 1778131428 | 15° C | 90% | 1011.4 hPa | 1.78 mm | - | - | - |
* Rain latest hour (hover to see other rain measurements)
** Current wind speed in m/s (hover to see current wind gust speed)